Location: Azul
(36.7830°S, 59.8500°W)
Time: 15:59:29
(UTC-03:00)

ISS - Pass Details

Date: 25 February 2021
Orbit: 417 x 422 km, 51.6° (Epoch: 26 February)

Event Time Altitude Azimuth Distance (km) Brightness Sun altitude
Rises 21:52:03 0° 218° (SW) 2,406 1.3 -24.7°
Reaches altitude 10° 21:54:58 10° 191° (S) 1,534 -0.4 -25.2°
Enters shadow 21:56:10 13° 171° (S) 1,337 -1.0 -25.4°
